Total_Precipitation_Accumulation
0.03 0.03 0.03 0.02 0.01 0.01 0.00 0.00 0.00 0.00 0.00 0.00 0.00 0.00 0.00 0.00 0.00 0.00 0.00 0.00 0.00 0.00 0.00 0.00 0.00 0.00 0.00 0.03 0.27 0.77 3.43 3.12 1.69 1.53 1.61 0.89 0.97 1.62 1.09 0.39 0.22 0.25 0.15 0.01 0.02
0.03 0.03 0.02 0.02 0.01 0.01 0.00 0.00 0.00 0.00 0.00 0.00 0.00 0.00 0.00 0.01 0.00 0.00 0.00 0.00 0.00 0.00 0.00 0.00 0.00 0.00 0.03 0.07 0.23 2.08 4.16 3.91 1.48 0.79 0.70 0.55 1.10 0.69 0.38 0.33 0.47 0.24 0.09 0.02 0.04
0.02 0.02 0.02 0.02 0.01 0.01 0.01 0.01 0.01 0.01 0.00 0.00 0.00 0.00 0.00 0.00 0.00 0.00 0.00 0.00 0.00 0.00 0.00 0.00 0.00 0.01 0.05 0.06 0.25 1.63 4.18 2.86 1.50 0.51 0.69 0.91 1.05 0.63 0.27 0.55 1.05 0.77 0.08 0.01 0.01
0.01 0.02 0.02 0.02 0.02 0.01 0.01 0.01 0.01 0.01 0.00 0.00 0.00 0.00 0.00 0.00 0.00 0.00 0.00 0.00 0.00 0.00 0.00 0.00 0.00 0.08 0.24 0.21 0.24 1.22 1.98 2.19 2.07 0.66 0.67 1.24 1.15 1.31 0.90 1.10 0.45 0.28 0.05 0.00 0.01
0.02 0.01 0.02 0.02 0.02 0.02 0.01 0.01 0.01 0.01 0.01 0.00 0.01 0.01 0.00 0.00 0.00 0.00 0.00 0.00 0.00 0.00 0.00 0.00 0.01 0.13 0.26 0.19 0.24 0.71 1.60 1.32 1.60 0.87 0.78 0.71 0.77 1.46 1.12 2.22 0.78 0.23 0.04 0.00 0.00
0.02 0.02 0.02 0.02 0.02 0.02 0.02 0.01 0.01 0.00 0.01 0.01 0.02 0.01 0.00 0.00 0.00 0.00 0.00 0.00 0.00 0.00 0.00 0.00 0.04 0.09 0.09 0.15 0.36 0.55 1.14 0.99 1.03 1.12 0.82 0.74 0.63 0.40 0.56 0.78 0.66 0.28 0.03 0.00 0.00
0.03 0.03 0.03 0.02 0.01 0.01 0.01 0.00 0.00 0.00 0.01 0.02 0.03 0.01 0.00 0.00 0.00 0.00 0.00 0.00 0.00 0.00 0.00 0.00 0.02 0.01 0.03 0.16 0.32 0.63 1.38 1.31 1.30 1.47 0.91 1.06 1.54 0.89 0.68 0.63 0.49 0.26 0.05 0.00 0.00
0.02 0.02 0.02 0.02 0.02 0.01 0.00 0.00 0.00 0.00 0.01 0.03 0.03 0.00 0.00 0.00 0.00 0.00 0.00 0.00 0.00 0.00 0.00 0.00 0.00 0.00 0.01 0.05 0.27 1.66 2.15 2.11 2.30 2.01 1.41 1.85 3.14 1.66 0.89 0.73 0.27 0.12 0.04 0.00 0.00
0.02 0.02 0.02 0.03 0.03 0.02 0.00 0.00 0.00 0.01 0.00 0.01 0.00 0.00 0.00 0.00 0.00 0.00 0.00 0.00 0.00 0.00 0.00 0.00 0.00 0.00 0.00 0.02 0.14 1.09 2.14 2.64 2.62 2.41 2.58 2.89 4.01 2.71 0.80 0.56 0.29 0.03 0.01 0.00 0.00
0.02 0.02 0.02 0.03 0.04 0.02 0.00 0.00 0.00 0.00 0.00 0.00 0.00 0.00 0.00 0.00 0.00 0.00 0.00 0.00 0.00 0.00 0.00 0.00 0.00 0.00 0.01 0.02 0.07 0.45 0.92 1.69 2.20 2.21 3.04 2.49 1.74 1.78 0.81 1.84 0.84 0.20 0.03 0.00 0.00
0.01 0.02 0.03 0.03 0.03 0.03 0.01 0.00 0.00 0.00 0.00 0.00 0.00 0.00 0.00 0.00 0.00 0.00 0.00 0.00 0.00 0.00 0.00 0.00 0.00 0.00 0.02 0.04 0.12 0.11 0.83 1.56 1.81 2.34 2.97 2.34 1.80 1.90 0.51 1.24 1.33 0.23 0.12 0.04 0.00
0.01 0.02 0.03 0.03 0.02 0.02 0.00 0.00 0.00 0.00 0.00 0.00 0.00 0.00 0.00 0.00 0.00 0.00 0.00 0.00 0.00 0.00 0.00 0.01 0.00 0.00 0.02 0.04 0.10 0.21 0.91 1.27 1.84 1.91 2.79 4.72 3.26 2.29 1.00 0.72 0.68 0.47 0.23 0.13 0.02
0.01 0.02 0.02 0.01 0.00 0.00 0.00 0.00 0.00 0.00 0.00 0.00 0.00 0.00 0.00 0.00 0.00 0.00 0.00 0.00 0.00 0.00 0.00 0.00 0.00 0.00 0.00 0.05 0.12 0.21 0.37 0.71 1.08 1.18 1.71 3.15 4.39 3.01 1.35 1.15 1.07 0.81 0.49 0.12 0.02
0.01 0.02 0.02 0.00 0.00 0.00 0.00 0.00 0.00 0.00 0.00 0.00 0.00 0.00 0.00 0.00 0.00 0.00 0.00 0.00 0.00 0.00 0.00 0.00 0.00 0.00 0.00 0.01 0.07 0.42 0.27 0.33 0.35 0.40 0.56 0.67 1.86 1.68 1.45 1.30 1.76 1.07 0.68 0.15 0.03
0.01 0.01 0.03 0.01 0.00 0.00 0.00 0.00 0.00 0.00 0.02 0.00 0.00 0.00 0.00 0.00 0.00 0.00 0.00 0.00 0.00 0.00 0.00 0.00 0.00 0.00 0.00 0.00 0.06 0.08 0.12 0.20 0.39 0.27 0.20 0.18 0.57 0.79 0.90 1.26 1.35 1.01 1.04 0.37 0.07
0.01 0.02 0.03 0.00 0.00 0.00 0.00 0.00 0.00 0.00 0.02 0.00 0.00 0.00 0.00 0.00 0.00 0.00 0.00 0.00 0.00 0.00 0.00 0.00 0.00 0.00 0.00 0.00 0.01 0.02 0.12 0.22 0.23 0.38 0.31 0.09 0.14 0.52 0.59 0.52 0.66 0.47 0.86 1.14 0.54
0.01 0.02 0.03 0.00 0.00 0.00 0.00 0.00 0.01 0.02 0.01 0.00 0.00 0.00 0.00 0.00 0.00 0.00 0.00 0.00 0.00 0.00 0.00 0.00 0.00 0.00 0.00 0.01 0.06 0.05 0.17 0.20 0.22 0.15 0.12 0.10 0.07 0.17 0.50 0.49 0.41 0.46 0.73 0.95 1.08
0.00 0.01 0.00 0.00 0.00 0.00 0.00 0.00 0.10 0.05 0.03 0.00 0.00 0.00 0.00 0.00 0.00 0.00 0.00 0.00 0.00 0.00 0.00 0.00 0.00 0.00 0.00 0.00 0.01 0.01 0.01 0.11 0.26 0.19 0.19 0.24 0.31 0.19 0.03 0.05 0.06 0.20 0.28 0.32 0.29
0.00 0.00 0.00 0.00 0.00 0.00 0.00 0.07 0.10 0.02 0.01 0.00 0.00 0.00 0.00 0.00 0.00 0.00 0.00 0.00 0.00 0.00 0.00 0.00 0.00 0.00 0.00 0.00 0.00 0.01 0.03 0.04 0.03 0.05 0.06 0.20 0.15 0.22 0.09 0.04 0.04 0.04 0.17 0.29 0.31
0.00 0.00 0.00 0.00 0.00 0.00 0.03 0.08 0.02 0.00 0.00 0.00 0.00 0.00 0.01 0.00 0.00 0.00 0.00 0.01 0.00 0.00 0.00 0.00 0.00 0.00 0.00 0.02 0.06 0.07 0.14 0.07 0.02 0.06 0.08 0.18 0.21 0.31 0.16 0.11 0.05 0.03 0.03 0.13 0.41
0.00 0.00 0.00 0.00 0.00 0.00 0.24 0.11 0.00 0.00 0.00 0.00 0.00 0.00 0.01 0.02 0.02 0.02 0.05 0.02 0.01 0.00 0.00 0.00 0.00 0.02 0.01 0.05 0.04 0.04 0.03 0.04 0.02 0.02 0.10 0.22 0.46 0.31 0.22 0.14 0.15 0.18 0.13 0.21 0.23
0.00 0.00 0.00 0.00 0.00 0.01 0.08 0.02 0.00 0.00 0.00 0.00 0.00 0.00 0.01 0.06 0.03 0.09 0.16 0.12 0.01 0.00 0.00 0.00 0.00 0.01 0.01 0.01 0.02 0.17 0.04 0.14 0.02 0.04 0.11 0.14 0.31 0.27 0.56 0.27 0.25 0.26 0.21 0.32 0.34
0.00 0.00 0.00 0.00 0.02 0.08 0.01 0.00 0.00 0.00 0.00 0.01 0.02 0.01 0.00 0.02 0.05 0.09 0.12 0.07 0.03 0.01 0.03 0.08 0.05 0.02 0.03 0.01 0.00 0.00 0.03 0.09 0.11 0.07 0.07 0.04 0.10 0.11 0.21 0.18 0.23 0.22 0.13 0.17 0.28
0.02 0.00 0.00 0.00 0.00 0.00 0.02 0.04 0.02 0.00 0.03 0.02 0.05 0.03 0.01 0.00 0.02 0.16 0.08 0.05 0.02 0.04 0.11 0.15 0.03 0.01 0.07 0.05 0.01 0.01 0.00 0.00 0.01 0.02 0.02 0.04 0.05 0.07 0.03 0.02 0.06 0.09 0.11 0.12 0.28
0.08 0.02 0.00 0.01 0.00 0.02 0.06 0.09 0.05 0.05 0.03 0.02 0.16 0.18 0.07 0.03 0.03 0.14 0.08 0.01 0.02 0.05 0.09 0.08 0.02 0.00 0.01 0.01 0.00 0.02 0.02 0.01 0.00 0.00 0.03 0.10 0.05 0.12 0.11 0.10 0.11 0.08 0.10 0.19 0.32
0.13 0.16 0.10 0.02 0.00 0.01 0.04 0.09 0.10 0.04 0.02 0.04 0.16 0.16 0.13 0.14 0.10 0.12 0.06 0.05 0.08 0.09 0.13 0.06 0.02 0.01 0.00 0.00 0.00 0.01 0.00 0.00 0.03 0.05 0.07 0.08 0.10 0.15 0.09 0.32 0.37 0.36 0.47 0.38 0.53
0.21 0.24 0.38 0.16 0.06 0.11 0.07 0.12 0.13 0.26 0.23 0.15 0.35 0.37 0.21 0.19 0.13 0.08 0.07 0.05 0.04 0.06 0.15 0.09 0.13 0.11 0.03 0.01 0.00 0.01 0.04 0.01 0.01 0.04 0.07 0.09 0.28 0.21 0.09 0.49 0.63 0.46 1.12 1.75 1.20